Regional Weather Roundup
Issued by NWS

Home | Current Version | Previous Version | Text Only | Print | Product List | Glossary On
Versions: 1 2 3 4 5 6 7 8 9 10 11 12 13 14 15 16 17 18 19 20 21 22 23 24 25 26 27 28 29 30 31 32 33 34 35 36 37 38 39 40 41 42 43 44 45 46 47 48 49 50
000
ASUS43 KLOT 302000
RWRIL

ILLINOIS REGIONAL WEATHER ROUNDUP
NATIONAL WEATHER SERVICE CHICAGO/ROMEOVILLE IL
300 PM CDT TUE JUN 30 2015

NOTE: "FAIR" INDICATES FEW OR NO CLOUDS BELOW 12,000 FEET WITH NO
SIGNIFICANT WEATHER AND/OR OBSTRUCTIONS TO VISIBILITY.

* THESE STATIONS ARE NOT UNDER NWS QUALITY CONTROL. THEY ALSO MAY NOT
  REPORT WEATHER SUCH AS PRECIPITATION OR FOG.

ILZ001-002-007-009-015-016-024-302100-
NORTHWEST ILLINOIS

CITY           SKY/WX    TMP DP  RH WIND       PRES   REMARKS
MOLINE         PTSUNNY   82  62  50 NW8       29.85R HX  83
STERLING*      PTSUNNY   81  64  57 NW10      29.84S HX  82
$$

ILZ003-004-008-010-011-017-018-302100-
NORTH CENTRAL ILLINOIS

CITY           SKY/WX    TMP DP  RH WIND       PRES   REMARKS
ROCKFORD       PTSUNNY   75  60  59 N12       29.86S
$$

ILZ005-006-012>014-019>023-302100-
NORTHEAST ILLINOIS

CITY           SKY/WX    TMP DP  RH WIND       PRES   REMARKS
CHICAGO-OHARE  PTSUNNY   76  59  55 NW9       29.81S
CHICAGO-MIDWAY PTSUNNY   78  59  51 N12       29.81R
AURORA         MOSUNNY   75  61  61 NW12      29.84R
WAUKEGAN         N/A    N/A N/A N/A MISG      29.82R
DUPAGE AIRPORT PTSUNNY   75  60  59 N10G17    29.82S
WHEELING       PTSUNNY   75  58  55 N13G18    29.83S
NORTHERLY ISL    N/A     68  61  78 E6          N/A
$$

LMZ740>746-302100-
SOUTHERN LAKE MICHIGAN

STATION/POSITION SKY/WX   TEMP    WIND        PRES    VSBY  WAVE
                          AIR SEA DIR/SP/G                  HT/PER
                          (F)     (DEG/KT/KT) (MB)    (MI)  (FT/S)
HARRISON CRIB              64      50/ 10/ 12   N/A
BURNHAM HARBOR             68      50/  6/  9   N/A
CALUMET HARBOR             67      10/ 11/ 13   N/A
BURNS HARBOR               66      50/ 14/ 14 1010.5R
MICHIGAN CITY              62      10/ 12/ 13   N/A
MICHIGAN CITY 6N           63 65   40/ 10/ 12   N/A           1/ 2
ST. JOSEPH                 63 66                N/A           1/ 3
$$

ILZ025>027-034>036-040-047-049-050-058-095>099-302100-
WEST-CENTRAL ILLINOIS

CITY           SKY/WX    TMP DP  RH WIND       PRES   REMARKS
QUINCY         SUNNY     81  67  62 NW12      29.87S HX  83
$$

ILZ028>032-037-038-041>044-048-051>054-059>061-302100-
CENTRAL ILLINOIS

CITY           SKY/WX    TMP DP  RH WIND       PRES   REMARKS
DECATUR        PTSUNNY   82  66  58 W12       29.83F HX  84
PEORIA         MOSUNNY   83  65  54 N7        29.84S HX  85
SPRINGFIELD    MOSUNNY   84  68  58 W15       29.84S HX  87
TAYLORVILLE    NOT AVBL
$$

ILZ033-039-045-046-055>057-062-063-302100-
EAST-CENTRAL ILLINOIS

CITY           SKY/WX    TMP DP  RH WIND       PRES   REMARKS
CHAMPAIGN      PTSUNNY   80  67  64 W7G18     29.84S HX  82
MATTOON        MOSUNNY   80  67  64 W8        29.83F HX  82
$$

ILZ079-100>102-302100-
SOUTHWEST ILLINOIS

CITY           SKY/WX    TMP DP  RH WIND       PRES   REMARKS
ALTON          CLOUDY    82  72  69 SW9       29.87F HX  87
CAHOKIA*       SUNNY     85  65  51 W8        29.87F HX  86
SPARTA*        SUNNY     83  66  56 W8        29.90S HX  85
$$

ILZ064>066-069>071-074>076-080>082-084>086-088>090-092>094-302100-
SOUTH-CENTRAL ILLINOIS

CITY           SKY/WX    TMP DP  RH WIND       PRES   REMARKS
CARBONDALE     SUNNY     83  65  54 W7        29.89S HX  85
MARION         CLOUDY    82  66  57 W9        29.90  HX  85
MT. VERNON     SUNNY     82  66  57 W6        29.88S HX  85
$$

ILZ067-068-072-073-078-083-087-091-302100-
SOUTHEAST ILLINOIS

CITY           SKY/WX    TMP DP  RH WIND       PRES   REMARKS
LAWRENCEVILLE  SUNNY     83  67  58 W10       29.84S HX  85
$$

ABBREVIATIONS USED IN REMARKS
   TC - TEMPERATURE IN CELSIUS
  WCI - WIND CHILL INDEX
   HX - HEAT INDEX
  VSB - VISIBILITY
$$




USA.gov is the U.S. government's official web portal to all federal, state and local government web resources and services.